Year,Month,Day,Hour,Minute,Value (Times are PST for windgust in km/hr)
2016,10,06,00,24,1.60
2016,10,06,00,28,1.60
2016,10,06,00,29,3.20
2016,10,06,00,31,3.20
2016,10,06,00,33,1.60
2016,10,06,00,34,6.40
2016,10,06,00,35,8.10
2016,10,06,00,36,8.10
2016,10,06,00,37,3.20
2016,10,06,00,38,3.20
2016,10,06,00,39,3.20
2016,10,06,00,49,3.20
2016,10,06,00,50,3.20
2016,10,06,00,51,1.60
2016,10,06,01,26,1.60
2016,10,06,01,27,3.20
2016,10,06,01,28,4.80
2016,10,06,01,29,6.40
2016,10,06,01,30,4.80
2016,10,06,01,38,1.60
2016,10,06,01,39,1.60
2016,10,06,01,47,3.20
2016,10,06,01,48,3.20
2016,10,06,01,49,1.60
2016,10,06,02,19,3.20
2016,10,06,02,20,4.80
2016,10,06,02,21,6.40
2016,10,06,02,22,4.80
2016,10,06,02,26,1.60
2016,10,06,05,10,1.60
2016,10,06,05,11,3.20
2016,10,06,06,42,3.20
2016,10,06,06,43,3.20
2016,10,06,06,44,1.60
2016,10,06,06,46,1.60
2016,10,06,06,47,3.20
2016,10,06,06,48,4.80
2016,10,06,06,49,1.60
2016,10,06,06,55,1.60
2016,10,06,06,58,1.60
2016,10,06,07,02,1.60
2016,10,06,08,04,1.60
2016,10,06,08,05,1.60
2016,10,06,08,06,3.20
2016,10,06,08,07,1.60
2016,10,06,08,08,4.80
2016,10,06,08,09,4.80
2016,10,06,08,10,1.60
2016,10,06,08,11,1.60
2016,10,06,08,12,3.20
2016,10,06,08,13,1.60
2016,10,06,08,14,3.20
2016,10,06,08,15,3.20
2016,10,06,08,18,1.60
2016,10,06,08,22,3.20
2016,10,06,08,33,1.60
2016,10,06,08,50,1.60
2016,10,06,08,52,3.20
2016,10,06,09,05,1.60
2016,10,06,09,07,1.60
2016,10,06,09,10,3.20
2016,10,06,09,11,1.60
2016,10,06,09,12,1.60
2016,10,06,09,16,1.60
2016,10,06,09,17,3.20
2016,10,06,09,18,4.80
2016,10,06,09,19,1.60
2016,10,06,09,22,3.20
2016,10,06,09,23,1.60
2016,10,06,09,29,1.60
2016,10,06,09,30,1.60
2016,10,06,09,31,1.60
2016,10,06,09,32,1.60
2016,10,06,09,37,1.60
2016,10,06,09,39,1.60
2016,10,06,09,40,1.60
2016,10,06,09,43,4.80
2016,10,06,09,44,4.80
2016,10,06,09,45,4.80
2016,10,06,09,46,1.60
2016,10,06,09,50,1.60
2016,10,06,09,51,4.80
2016,10,06,09,52,3.20
2016,10,06,09,54,1.60
2016,10,06,09,58,1.60
2016,10,06,10,00,3.20
2016,10,06,10,01,4.80
2016,10,06,10,02,3.20
2016,10,06,10,03,4.80
2016,10,06,10,04,4.80
2016,10,06,10,05,6.40
2016,10,06,10,06,4.80
2016,10,06,10,07,1.60
2016,10,06,10,08,4.80
2016,10,06,10,09,6.40
2016,10,06,10,10,6.40
2016,10,06,10,11,6.40
2016,10,06,10,12,1.60
2016,10,06,10,13,3.20
2016,10,06,10,14,4.80
2016,10,06,10,16,3.20
2016,10,06,10,17,1.60
2016,10,06,10,18,1.60
2016,10,06,10,19,1.60
2016,10,06,10,23,4.80
2016,10,06,10,24,4.80
2016,10,06,10,25,4.80
2016,10,06,10,26,3.20
2016,10,06,10,28,4.80
2016,10,06,10,29,6.40
2016,10,06,10,30,4.80
2016,10,06,10,31,1.60
2016,10,06,10,32,3.20
2016,10,06,10,33,4.80
2016,10,06,10,34,8.10
2016,10,06,10,35,6.40
2016,10,06,10,36,3.20
2016,10,06,10,37,3.20
2016,10,06,10,38,4.80
2016,10,06,10,39,6.40
2016,10,06,10,43,4.80
2016,10,06,10,44,6.40
2016,10,06,10,45,4.80
2016,10,06,10,47,4.80
2016,10,06,10,48,4.80
2016,10,06,10,52,1.60
2016,10,06,10,53,6.40
2016,10,06,10,54,3.20
2016,10,06,10,55,1.60
2016,10,06,10,56,4.80
2016,10,06,10,57,3.20
2016,10,06,10,58,1.60
2016,10,06,10,59,3.20
2016,10,06,11,00,6.40
2016,10,06,11,01,4.80
2016,10,06,11,02,1.60
2016,10,06,11,03,1.60
2016,10,06,11,04,1.60
2016,10,06,11,07,3.20
2016,10,06,11,08,1.60
2016,10,06,11,09,8.10
2016,10,06,11,10,6.40
2016,10,06,11,11,3.20
2016,10,06,11,12,1.60
2016,10,06,11,13,1.60
2016,10,06,11,14,3.20
2016,10,06,11,15,3.20
2016,10,06,11,16,3.20
2016,10,06,11,17,6.40
2016,10,06,11,18,4.80
2016,10,06,11,19,3.20
2016,10,06,11,29,1.60
2016,10,06,11,31,8.10
2016,10,06,11,32,4.80
2016,10,06,11,33,1.60
2016,10,06,11,34,1.60
2016,10,06,11,35,8.10
2016,10,06,11,36,4.80
2016,10,06,11,37,6.40
2016,10,06,11,38,8.10
2016,10,06,11,39,9.60
2016,10,06,11,40,8.10
2016,10,06,11,41,8.10
2016,10,06,11,42,8.10
2016,10,06,11,43,4.80
2016,10,06,11,44,6.40
2016,10,06,11,45,6.40
2016,10,06,11,46,8.10
2016,10,06,11,47,8.10
2016,10,06,11,48,8.10
2016,10,06,11,49,6.40
2016,10,06,11,50,8.10
2016,10,06,11,51,6.40
2016,10,06,11,52,6.40
2016,10,06,11,53,9.60
2016,10,06,11,54,8.10
2016,10,06,11,55,3.20
2016,10,06,11,56,3.20
2016,10,06,11,57,16.10
2016,10,06,11,58,16.10
2016,10,06,11,59,12.90
2016,10,06,12,00,8.10
2016,10,06,12,01,16.10
2016,10,06,12,02,6.40
2016,10,06,12,03,1.60
2016,10,06,12,04,9.60
2016,10,06,12,05,12.90
2016,10,06,12,06,6.40
2016,10,06,12,07,14.50
2016,10,06,12,08,17.70
2016,10,06,12,09,14.50
2016,10,06,12,10,12.90
2016,10,06,12,11,4.80
2016,10,06,12,12,11.30
2016,10,06,12,13,9.60
2016,10,06,12,14,11.30
2016,10,06,12,15,4.80
2016,10,06,12,16,12.90
2016,10,06,12,17,14.50
2016,10,06,12,18,17.70
2016,10,06,12,19,9.60
2016,10,06,12,20,8.10
2016,10,06,12,21,3.20
2016,10,06,12,22,6.40
2016,10,06,12,23,17.70
2016,10,06,12,24,6.40
2016,10,06,12,25,8.10
2016,10,06,12,26,8.10
2016,10,06,12,27,4.80
2016,10,06,12,28,4.80
2016,10,06,12,29,8.10
2016,10,06,12,30,16.10
2016,10,06,12,31,8.10
2016,10,06,12,32,3.20
2016,10,06,12,33,16.10
2016,10,06,12,34,8.10
2016,10,06,12,35,9.60
2016,10,06,12,36,12.90
2016,10,06,12,37,17.70
2016,10,06,12,38,11.30
2016,10,06,12,39,9.60
2016,10,06,12,40,8.10
2016,10,06,12,41,9.60
2016,10,06,12,42,12.90
2016,10,06,12,44,9.60
2016,10,06,12,45,11.30
2016,10,06,12,46,11.30
2016,10,06,12,47,8.10
2016,10,06,12,48,14.50
2016,10,06,12,49,12.90
2016,10,06,12,50,19.30
2016,10,06,12,51,14.50
2016,10,06,12,52,11.30
2016,10,06,12,53,14.50
2016,10,06,12,54,9.60
2016,10,06,12,55,6.40
2016,10,06,12,56,3.20
2016,10,06,12,57,11.30
2016,10,06,12,58,12.90
2016,10,06,12,59,11.30
2016,10,06,13,00,14.50
2016,10,06,13,01,9.60
2016,10,06,13,02,8.10
2016,10,06,13,03,8.10
2016,10,06,13,04,4.80
2016,10,06,13,05,11.30
2016,10,06,13,06,11.30
2016,10,06,13,07,9.60
2016,10,06,13,08,8.10
2016,10,06,13,09,11.30
2016,10,06,13,10,6.40
2016,10,06,13,11,9.60
2016,10,06,13,12,8.10
2016,10,06,13,13,9.60
2016,10,06,13,14,11.30
2016,10,06,13,15,14.50
2016,10,06,13,16,6.40
2016,10,06,13,17,9.60
2016,10,06,13,18,8.10
2016,10,06,13,19,11.30
2016,10,06,13,20,9.60
2016,10,06,13,21,8.10
2016,10,06,13,23,6.40
2016,10,06,13,24,1.60
2016,10,06,13,25,16.10
2016,10,06,13,26,17.70
2016,10,06,13,27,9.60
2016,10,06,13,28,19.30
2016,10,06,13,29,19.30
2016,10,06,13,30,11.30
2016,10,06,13,31,20.90
2016,10,06,13,32,8.10
2016,10,06,13,33,11.30
2016,10,06,13,34,9.60
2016,10,06,13,35,6.40
2016,10,06,13,36,3.20
2016,10,06,13,37,12.90
2016,10,06,13,38,16.10
2016,10,06,13,39,6.40
2016,10,06,13,40,8.10
2016,10,06,13,41,11.30
2016,10,06,13,42,8.10
2016,10,06,13,43,19.30
2016,10,06,13,44,16.10
2016,10,06,13,45,16.10
2016,10,06,13,46,3.20
2016,10,06,13,47,4.80
2016,10,06,13,48,11.30
2016,10,06,13,49,11.30
2016,10,06,13,50,9.60
2016,10,06,13,51,4.80
2016,10,06,13,52,16.10
2016,10,06,13,53,8.10
2016,10,06,13,54,3.20
2016,10,06,13,55,8.10
2016,10,06,13,56,17.70
2016,10,06,13,57,19.30
2016,10,06,13,58,14.50
2016,10,06,13,59,16.10
2016,10,06,14,00,11.30
2016,10,06,14,01,6.40
2016,10,06,14,02,1.60
2016,10,06,14,03,4.80
2016,10,06,14,04,12.90
2016,10,06,14,05,16.10
2016,10,06,14,06,14.50
2016,10,06,14,07,4.80
2016,10,06,14,08,1.60
2016,10,06,14,10,4.80
2016,10,06,14,11,8.10
2016,10,06,14,12,14.50
2016,10,06,14,13,9.60
2016,10,06,14,14,9.60
2016,10,06,14,15,8.10
2016,10,06,14,16,11.30
2016,10,06,14,18,1.60
2016,10,06,14,19,3.20
2016,10,06,14,21,4.80
2016,10,06,14,22,4.80
2016,10,06,14,23,8.10
2016,10,06,14,24,4.80
2016,10,06,14,26,8.10
2016,10,06,14,27,1.60
2016,10,06,14,30,3.20
2016,10,06,14,31,3.20
2016,10,06,14,32,1.60
2016,10,06,14,33,4.80
2016,10,06,14,34,6.40
2016,10,06,14,35,1.60
2016,10,06,14,37,1.60
2016,10,06,14,38,1.60
2016,10,06,14,39,1.60
2016,10,06,14,40,4.80
2016,10,06,14,45,1.60
2016,10,06,14,46,3.20
2016,10,06,14,47,4.80
2016,10,06,14,48,1.60
2016,10,06,14,52,4.80
2016,10,06,14,53,1.60
2016,10,06,14,55,1.60
2016,10,06,14,58,11.30
2016,10,06,14,59,6.40
2016,10,06,15,01,4.80
2016,10,06,15,02,6.40
2016,10,06,15,03,8.10
2016,10,06,15,04,6.40
2016,10,06,15,07,1.60
2016,10,06,15,16,1.60
2016,10,06,15,18,4.80
2016,10,06,15,19,4.80
2016,10,06,15,30,1.60
2016,10,06,16,19,3.20
2016,10,06,16,20,4.80
2016,10,06,16,21,4.80
2016,10,06,16,23,1.60
2016,10,06,16,25,4.80
2016,10,06,16,26,4.80
2016,10,06,16,27,3.20
2016,10,06,16,28,4.80
2016,10,06,16,31,11.30
2016,10,06,16,32,11.30
2016,10,06,16,33,4.80
2016,10,06,16,34,4.80
2016,10,06,16,35,4.80
2016,10,06,16,36,4.80
2016,10,06,16,37,4.80
2016,10,06,16,38,3.20
2016,10,06,16,39,1.60
2016,10,06,16,44,9.60
2016,10,06,16,45,6.40
2016,10,06,16,46,4.80
2016,10,06,16,47,4.80
2016,10,06,16,48,4.80
2016,10,06,16,49,6.40
2016,10,06,16,50,1.60
2016,10,06,16,51,4.80
2016,10,06,16,54,3.20
2016,10,06,16,55,3.20
2016,10,06,16,56,3.20
2016,10,06,16,57,6.40
2016,10,06,16,58,4.80
2016,10,06,16,59,4.80
2016,10,06,17,00,6.40
2016,10,06,17,01,3.20
2016,10,06,17,02,1.60
2016,10,06,17,03,3.20
2016,10,06,17,04,6.40
2016,10,06,17,05,6.40
2016,10,06,17,06,3.20
2016,10,06,17,07,4.80
2016,10,06,17,08,4.80
2016,10,06,17,09,4.80
2016,10,06,17,10,4.80
2016,10,06,17,11,6.40
2016,10,06,17,12,9.60
2016,10,06,17,13,6.40
2016,10,06,17,14,4.80
2016,10,06,17,15,1.60
2016,10,06,17,16,8.10
2016,10,06,17,17,6.40
2016,10,06,17,18,4.80
2016,10,06,17,19,6.40
2016,10,06,17,20,6.40
2016,10,06,17,21,8.10
2016,10,06,17,22,4.80
2016,10,06,17,23,8.10
2016,10,06,17,24,14.50
2016,10,06,17,25,14.50
2016,10,06,17,26,9.60
2016,10,06,17,27,9.60
2016,10,06,17,28,8.10
2016,10,06,17,29,11.30
2016,10,06,17,30,11.30
2016,10,06,17,31,4.80
2016,10,06,17,32,1.60
2016,10,06,17,33,4.80
2016,10,06,17,34,8.10
2016,10,06,17,35,11.30
2016,10,06,17,36,16.10
2016,10,06,17,37,6.40
2016,10,06,17,38,1.60
2016,10,06,17,39,6.40
2016,10,06,17,40,20.90
2016,10,06,17,41,16.10
2016,10,06,17,42,6.40
2016,10,06,17,43,8.10
2016,10,06,17,44,14.50
2016,10,06,17,45,16.10
2016,10,06,17,46,8.10
2016,10,06,17,47,8.10
2016,10,06,17,48,8.10
2016,10,06,17,49,17.70
2016,10,06,17,50,14.50
2016,10,06,17,51,11.30
2016,10,06,17,52,1.60
2016,10,06,17,53,11.30
2016,10,06,17,54,6.40
2016,10,06,17,55,16.10
2016,10,06,17,56,4.80
2016,10,06,17,57,16.10
2016,10,06,17,58,9.60
2016,10,06,17,59,4.80
2016,10,06,18,00,8.10
2016,10,06,18,01,1.60
2016,10,06,18,02,11.30
2016,10,06,18,03,27.40
2016,10,06,18,04,24.20
2016,10,06,18,05,9.60
2016,10,06,18,06,6.40
2016,10,06,18,07,9.60
2016,10,06,18,08,17.70
2016,10,06,18,09,20.90
2016,10,06,18,10,11.30
2016,10,06,18,11,20.90
2016,10,06,18,12,20.90
2016,10,06,18,13,11.30
2016,10,06,18,14,11.30
2016,10,06,18,15,9.60
2016,10,06,18,16,24.20
2016,10,06,18,17,19.30
2016,10,06,18,18,12.90
2016,10,06,18,19,9.60
2016,10,06,18,20,6.40
2016,10,06,18,21,8.10
2016,10,06,18,22,9.60
2016,10,06,18,23,8.10
2016,10,06,18,24,14.50
2016,10,06,18,25,11.30
2016,10,06,18,26,8.10
2016,10,06,18,27,16.10
2016,10,06,18,28,9.60
2016,10,06,18,29,11.30
2016,10,06,18,30,8.10
2016,10,06,18,31,16.10
2016,10,06,18,32,6.40
2016,10,06,18,33,22.50
2016,10,06,18,34,16.10
2016,10,06,18,35,11.30
2016,10,06,18,36,8.10
2016,10,06,18,37,6.40
2016,10,06,18,38,8.10
2016,10,06,18,39,6.40
2016,10,06,18,40,9.60
2016,10,06,18,41,11.30
2016,10,06,18,42,8.10
2016,10,06,18,43,17.70
2016,10,06,18,44,17.70
2016,10,06,18,45,9.60
2016,10,06,18,46,9.60
2016,10,06,18,47,16.10
2016,10,06,18,48,17.70
2016,10,06,18,49,4.80
2016,10,06,18,50,8.10
2016,10,06,18,51,11.30
2016,10,06,18,52,27.40
2016,10,06,18,53,27.40
2016,10,06,18,54,20.90
2016,10,06,18,55,20.90
2016,10,06,18,56,12.90
2016,10,06,18,57,11.30
2016,10,06,18,58,25.70
2016,10,06,18,59,12.90
2016,10,06,19,00,14.50
2016,10,06,19,01,25.70
2016,10,06,19,02,20.90
2016,10,06,19,03,19.30
2016,10,06,19,04,16.10
2016,10,06,19,05,19.30
2016,10,06,19,06,6.40
2016,10,06,19,07,17.70
2016,10,06,19,08,24.20
2016,10,06,19,09,8.10
2016,10,06,19,10,6.40
2016,10,06,19,11,16.10
2016,10,06,19,12,14.50
2016,10,06,19,13,14.50
2016,10,06,19,14,20.90
2016,10,06,19,15,17.70
2016,10,06,19,16,11.30
2016,10,06,19,17,14.50
2016,10,06,19,18,20.90
2016,10,06,19,19,9.60
2016,10,06,19,20,11.30
2016,10,06,19,21,17.70
2016,10,06,19,22,14.50
2016,10,06,19,23,24.20
2016,10,06,19,24,27.40
2016,10,06,19,25,17.70
2016,10,06,19,26,16.10
2016,10,06,19,27,8.10
2016,10,06,19,28,6.40
2016,10,06,19,29,20.90
2016,10,06,19,30,24.20
2016,10,06,19,31,11.30
2016,10,06,19,32,11.30
2016,10,06,19,33,20.90
2016,10,06,19,34,16.10
2016,10,06,19,35,17.70
2016,10,06,19,36,25.70
2016,10,06,19,37,17.70
2016,10,06,19,38,16.10
2016,10,06,19,39,11.30
2016,10,06,19,40,6.40
2016,10,06,19,41,25.70
2016,10,06,19,42,17.70
2016,10,06,19,43,20.90
2016,10,06,19,44,16.10
2016,10,06,19,45,29.00
2016,10,06,19,46,11.30
2016,10,06,19,47,9.60
2016,10,06,19,48,9.60
2016,10,06,19,49,11.30
2016,10,06,19,50,17.70
2016,10,06,19,51,14.50
2016,10,06,19,52,17.70
2016,10,06,19,53,12.90
2016,10,06,19,54,14.50
2016,10,06,19,55,29.00
2016,10,06,19,56,14.50
2016,10,06,19,57,17.70
2016,10,06,19,58,19.30
2016,10,06,19,59,22.50
2016,10,06,20,00,29.00
2016,10,06,20,01,33.80
2016,10,06,20,02,29.00
2016,10,06,20,03,20.90
2016,10,06,20,04,17.70
2016,10,06,20,05,14.50
2016,10,06,20,06,19.30
2016,10,06,20,07,17.70
2016,10,06,20,08,19.30
2016,10,06,20,09,20.90
2016,10,06,20,10,32.20
2016,10,06,20,11,16.10
2016,10,06,20,12,33.80
2016,10,06,20,13,14.50
2016,10,06,20,14,22.50
2016,10,06,20,15,20.90
2016,10,06,20,16,6.40
2016,10,06,20,17,6.40
2016,10,06,20,18,29.00
2016,10,06,20,19,24.20
2016,10,06,20,20,30.60
2016,10,06,20,21,20.90
2016,10,06,20,22,38.60
2016,10,06,20,23,35.40
2016,10,06,20,24,20.90
2016,10,06,20,25,22.50
2016,10,06,20,26,25.70
2016,10,06,20,27,11.30
2016,10,06,20,28,20.90
2016,10,06,20,29,19.30
2016,10,06,20,30,22.50
2016,10,06,20,31,16.10
2016,10,06,20,32,30.60
2016,10,06,20,33,30.60
2016,10,06,20,34,20.90
2016,10,06,20,35,11.30
2016,10,06,20,36,22.50
2016,10,06,20,37,19.30
2016,10,06,20,38,11.30
2016,10,06,20,39,9.60
2016,10,06,20,40,32.20
2016,10,06,20,41,22.50
2016,10,06,20,42,14.50
2016,10,06,20,43,11.30
2016,10,06,20,44,11.30
2016,10,06,20,45,24.20
2016,10,06,20,46,29.00
2016,10,06,20,47,20.90
2016,10,06,20,48,37.00
2016,10,06,20,49,17.70
2016,10,06,20,50,17.70
2016,10,06,20,51,25.70
2016,10,06,20,52,29.00
2016,10,06,20,53,8.10
2016,10,06,20,54,14.50
2016,10,06,20,55,11.30
2016,10,06,20,56,25.70
2016,10,06,20,57,24.20
2016,10,06,20,58,33.80
2016,10,06,20,59,22.50
2016,10,06,21,00,22.50
2016,10,06,21,01,17.70
2016,10,06,21,02,16.10
2016,10,06,21,03,19.30
2016,10,06,21,04,37.00
2016,10,06,21,05,22.50
2016,10,06,21,06,29.00
2016,10,06,21,07,33.80
2016,10,06,21,08,27.40
2016,10,06,21,09,20.90
2016,10,06,21,10,12.90
2016,10,06,21,11,24.20
2016,10,06,21,12,27.40
2016,10,06,21,13,25.70
2016,10,06,21,14,16.10
2016,10,06,21,15,17.70
2016,10,06,21,16,11.30
2016,10,06,21,17,16.10
2016,10,06,21,18,20.90
2016,10,06,21,19,16.10
2016,10,06,21,20,32.20
2016,10,06,21,21,33.80
2016,10,06,21,22,24.20
2016,10,06,21,23,8.10
2016,10,06,21,24,22.50
2016,10,06,21,25,33.80
2016,10,06,21,26,20.90
2016,10,06,21,27,37.00
2016,10,06,21,28,35.40
2016,10,06,21,29,17.70
2016,10,06,21,30,37.00
2016,10,06,21,31,17.70
2016,10,06,21,32,27.40
2016,10,06,21,33,22.50
2016,10,06,21,34,27.40
2016,10,06,21,35,20.90
2016,10,06,21,36,29.00
2016,10,06,21,37,16.10
2016,10,06,21,38,17.70
2016,10,06,21,39,20.90
2016,10,06,21,40,19.30
2016,10,06,21,41,24.20
2016,10,06,21,42,24.20
2016,10,06,21,43,40.20
2016,10,06,21,44,24.20
2016,10,06,21,45,24.20
2016,10,06,21,46,32.20
2016,10,06,21,47,11.30
2016,10,06,21,48,9.60
2016,10,06,21,49,17.70
2016,10,06,21,50,29.00
2016,10,06,21,51,19.30
2016,10,06,21,52,24.20
2016,10,06,21,53,25.70
2016,10,06,21,54,14.50
2016,10,06,21,55,32.20
2016,10,06,21,56,35.40
2016,10,06,21,57,43.50
2016,10,06,21,58,45.10
2016,10,06,21,59,37.00
2016,10,06,22,00,20.90
2016,10,06,22,01,30.60
2016,10,06,22,02,53.10
2016,10,06,22,03,61.20
2016,10,06,22,04,35.40
2016,10,06,22,05,35.40
2016,10,06,22,06,24.20
2016,10,06,22,07,40.20
2016,10,06,22,08,33.80
2016,10,06,22,09,33.80
2016,10,06,22,10,37.00
2016,10,06,22,11,38.60
2016,10,06,22,12,29.00
2016,10,06,22,13,29.00
2016,10,06,22,14,41.80
2016,10,06,22,15,43.50
2016,10,06,22,16,48.30
2016,10,06,22,17,48.30
2016,10,06,22,18,45.10
2016,10,06,22,19,30.60
2016,10,06,22,20,53.10
2016,10,06,22,21,32.20
2016,10,06,22,22,30.60
2016,10,06,22,23,32.20
2016,10,06,22,24,38.60
2016,10,06,22,25,45.10
2016,10,06,22,26,27.40
2016,10,06,22,27,46.70
2016,10,06,22,28,33.80
2016,10,06,22,29,33.80
2016,10,06,22,30,32.20
2016,10,06,22,31,43.50
2016,10,06,22,32,27.40
2016,10,06,22,33,40.20
2016,10,06,22,34,37.00
2016,10,06,22,35,22.50
2016,10,06,22,36,32.20
2016,10,06,22,37,27.40
2016,10,06,22,38,37.00
2016,10,06,22,39,25.70
2016,10,06,22,40,27.40
2016,10,06,22,41,56.30
2016,10,06,22,46,35.40
2016,10,06,22,47,30.60
2016,10,06,22,48,32.20
2016,10,06,22,49,33.80
2016,10,06,22,50,40.20
2016,10,06,22,51,29.00
2016,10,06,22,52,22.50
2016,10,06,22,53,43.50
2016,10,06,22,54,37.00
2016,10,06,22,55,53.10
2016,10,06,22,56,33.80
2016,10,06,22,57,38.60
2016,10,06,23,12,29.00
2016,10,06,23,15,35.40
2016,10,06,23,16,27.40
2016,10,06,23,17,30.60
2016,10,06,23,18,29.00
2016,10,06,23,19,35.40
2016,10,06,23,20,29.00
2016,10,06,23,21,40.20
2016,10,06,23,22,20.90
2016,10,06,23,23,16.10
2016,10,06,23,24,43.50
2016,10,06,23,25,29.00
2016,10,06,23,26,24.20
2016,10,06,23,27,38.60
2016,10,06,23,28,30.60
2016,10,06,23,29,43.50
2016,10,06,23,30,22.50
2016,10,06,23,31,41.80
2016,10,06,23,32,24.20
2016,10,06,23,33,22.50
